TimeCDT,TemperatureF,Dew PointF,Humidity,Sea Level PressureIn,VisibilityMPH,Wind Direction,Wind SpeedMPH,Gust SpeedMPH,PrecipitationIn,Events,Conditions,WindDirDegrees,DateUTC
12:18 AM,47.5,34.7,61,29.92,10.0,South,16.1,20.7,N/A,,Scattered Clouds,190,2013-04-26 05:18:00
12:38 AM,46.9,35.1,63,29.91,10.0,South,15.0,23.0,N/A,,Scattered Clouds,190,2013-04-26 05:38:00
12:58 AM,48.2,34.7,60,29.90,10.0,South,16.1,23.0,N/A,,Scattered Clouds,190,2013-04-26 05:58:00
1:18 AM,48.0,34.9,60,29.91,10.0,SSW,19.6,25.3,N/A,,Clear,200,2013-04-26 06:18:00
1:37 AM,47.3,34.9,62,29.91,10.0,SSW,19.6,27.6,N/A,,Clear,200,2013-04-26 06:37:00
2:18 AM,46.4,35.1,65,29.90,10.0,SSW,19.6,26.5,N/A,,Clear,200,2013-04-26 07:18:00
2:37 AM,46.4,35.1,65,29.90,10.0,SSW,19.6,26.5,N/A,,Clear,200,2013-04-26 07:37:00
2:57 AM,46.4,35.1,65,29.90,10.0,SSW,17.3,24.2,N/A,,Clear,210,2013-04-26 07:57:00
3:17 AM,46.8,35.6,65,29.90,10.0,SSW,18.4,26.5,N/A,,Scattered Clouds,210,2013-04-26 08:17:00
3:38 AM,45.5,35.2,67,29.90,10.0,SW,19.6,26.5,N/A,,Scattered Clouds,220,2013-04-26 08:38:00
3:57 AM,43.3,34.7,72,29.90,10.0,SSW,19.6,27.6,N/A,,Clear,210,2013-04-26 08:57:00
4:18 AM,44.1,34.3,69,29.90,10.0,SW,21.9,27.6,N/A,,Clear,220,2013-04-26 09:18:00
4:38 AM,44.1,34.2,68,29.91,10.0,SW,21.9,27.6,N/A,,Clear,220,2013-04-26 09:38:00
4:58 AM,44.1,34.0,68,29.90,10.0,SW,21.9,28.8,N/A,,Clear,220,2013-04-26 09:58:00
5:18 AM,44.8,34.2,66,29.90,10.0,SSW,21.9,27.6,N/A,,Clear,210,2013-04-26 10:18:00
5:38 AM,43.2,33.8,70,29.91,10.0,SW,19.6,26.5,N/A,,Clear,220,2013-04-26 10:38:00
5:57 AM,42.8,33.6,70,29.91,10.0,SSW,20.7,-,N/A,,Clear,210,2013-04-26 10:57:00
6:17 AM,42.8,33.4,70,29.91,10.0,SW,20.7,-,N/A,,Clear,220,2013-04-26 11:17:00
6:38 AM,42.6,33.3,69,29.92,10.0,SW,19.6,-,N/A,,Clear,220,2013-04-26 11:38:00
6:57 AM,43.2,33.3,68,29.92,10.0,SW,19.6,24.2,N/A,,Clear,220,2013-04-26 11:57:00
7:18 AM,43.3,33.4,68,29.93,10.0,SW,18.4,24.2,N/A,,Clear,220,2013-04-26 12:18:00
7:38 AM,43.7,33.8,68,29.94,10.0,SW,18.4,25.3,N/A,,Clear,230,2013-04-26 12:38:00
7:57 AM,43.7,34.0,69,29.95,10.0,SW,17.3,-,N/A,,Clear,230,2013-04-26 12:57:00
8:17 AM,43.7,34.2,69,29.96,10.0,WSW,15.0,-,N/A,,Clear,240,2013-04-26 13:17:00
8:38 AM,44.1,34.3,69,29.96,10.0,WSW,13.8,-,N/A,,Clear,240,2013-04-26 13:38:00
8:58 AM,44.6,34.5,68,29.97,10.0,WSW,12.7,-,N/A,,Clear,240,2013-04-26 13:58:00
9:17 AM,46.2,34.9,65,29.98,10.0,WSW,12.7,-,N/A,,Clear,250,2013-04-26 14:17:00
9:37 AM,47.1,35.4,64,29.99,10.0,WSW,11.5,-,N/A,,Clear,250,2013-04-26 14:37:00
9:58 AM,48.9,36.7,63,30.00,10.0,West,6.9,-,N/A,,Clear,270,2013-04-26 14:58:00
10:18 AM,50.0,36.7,60,30.01,10.0,WNW,10.4,-,N/A,,Clear,300,2013-04-26 15:18:00
10:37 AM,50.2,37.9,63,30.02,10.0,NW,10.4,-,N/A,,Clear,310,2013-04-26 15:37:00
10:58 AM,52.7,39.7,61,30.03,10.0,NW,11.5,-,N/A,,Clear,320,2013-04-26 15:58:00
11:18 AM,53.8,41.0,62,30.05,10.0,Calm,Calm,-,N/A,,Clear,0,2013-04-26 16:18:00
11:37 AM,54.7,41.7,62,30.06,10.0,Calm,Calm,-,N/A,,Clear,0,2013-04-26 16:37:00
11:57 AM,56.3,42.1,59,30.07,10.0,Calm,Calm,-,N/A,,Clear,0,2013-04-26 16:57:00
12:17 PM,57.6,43.5,59,30.07,10.0,Calm,Calm,-,N/A,,Clear,0,2013-04-26 17:17:00
12:38 PM,58.1,43.9,59,30.08,10.0,Calm,Calm,-,N/A,,Clear,0,2013-04-26 17:38:00
12:58 PM,59.0,45.1,60,30.08,10.0,Calm,Calm,-,N/A,,Clear,0,2013-04-26 17:58:00
1:18 PM,60.4,44.1,55,30.08,10.0,NW,8.1,-,N/A,,Clear,320,2013-04-26 18:18:00
1:37 PM,60.8,45.1,56,30.08,10.0,NW,4.6,-,N/A,,Clear,310,2013-04-26 18:37:00
1:57 PM,61.7,43.7,52,30.07,10.0,Calm,Calm,-,N/A,,Clear,0,2013-04-26 18:57:00
2:18 PM,62.2,43.3,50,30.08,10.0,Calm,Calm,-,N/A,,Clear,0,2013-04-26 19:18:00
2:38 PM,62.6,45.7,54,30.08,10.0,Calm,Calm,-,N/A,,Clear,0,2013-04-26 19:38:00
2:57 PM,63.7,41.5,44,30.08,10.0,WNW,8.1,-,N/A,,Clear,300,2013-04-26 19:57:00
3:18 PM,63.7,39.6,41,30.09,10.0,NW,10.4,-,N/A,,Clear,310,2013-04-26 20:18:00
3:38 PM,63.7,38.1,39,30.09,10.0,Calm,Calm,-,N/A,,Clear,0,2013-04-26 20:38:00
3:57 PM,63.9,38.1,39,30.09,10.0,NW,10.4,16.1,N/A,,Clear,320,2013-04-26 20:57:00
4:18 PM,63.9,38.3,39,30.09,10.0,NW,10.4,16.1,N/A,,Clear,320,2013-04-26 21:18:00
4:38 PM,64.4,34.5,33,30.09,10.0,NNW,11.5,-,N/A,,Clear,340,2013-04-26 21:38:00
4:57 PM,64.0,32.7,31,30.10,10.0,North,12.7,17.3,N/A,,Clear,350,2013-04-26 21:57:00
5:18 PM,64.4,33.8,32,30.10,10.0,NNW,12.7,17.3,N/A,,Clear,330,2013-04-26 22:18:00
5:38 PM,64.4,34.5,33,30.10,10.0,North,6.9,-,N/A,,Clear,350,2013-04-26 22:38:00
5:58 PM,63.9,33.4,32,30.11,10.0,North,11.5,-,N/A,,Clear,350,2013-04-26 22:58:00
6:18 PM,63.9,34.5,34,30.11,10.0,Calm,Calm,-,N/A,,Clear,0,2013-04-26 23:18:00
6:38 PM,63.3,35.2,35,30.11,10.0,North,4.6,-,N/A,,Clear,350,2013-04-26 23:38:00
6:57 PM,62.6,34.7,35,30.12,10.0,North,5.8,-,N/A,,Clear,360,2013-04-26 23:57:00
7:17 PM,61.7,36.5,39,30.12,10.0,Calm,Calm,-,N/A,,Clear,0,2013-04-27 00:17:00
7:38 PM,60.1,38.3,44,30.12,10.0,Calm,Calm,-,N/A,,Clear,0,2013-04-27 00:38:00
7:57 PM,58.3,38.7,48,30.12,10.0,Calm,Calm,-,N/A,,Clear,0,2013-04-27 00:57:00
8:18 PM,53.2,42.1,66,30.13,10.0,Calm,Calm,-,N/A,,Clear,0,2013-04-27 01:18:00
8:38 PM,51.6,38.7,61,30.13,10.0,Calm,Calm,-,N/A,,Clear,0,2013-04-27 01:38:00
8:58 PM,52.0,37.8,58,30.14,10.0,Calm,Calm,-,N/A,,Clear,0,2013-04-27 01:58:00
9:17 PM,50.9,36.9,59,30.14,10.0,Calm,Calm,-,N/A,,Clear,0,2013-04-27 02:17:00
9:38 PM,49.5,37.4,63,30.15,10.0,Calm,Calm,-,N/A,,Clear,0,2013-04-27 02:38:00
9:58 PM,49.1,38.5,67,30.15,10.0,Calm,Calm,-,N/A,,Clear,0,2013-04-27 02:58:00
10:18 PM,48.9,38.1,66,30.15,10.0,Calm,Calm,-,N/A,,Clear,0,2013-04-27 03:18:00
10:38 PM,49.3,37.4,64,30.16,10.0,Calm,Calm,-,N/A,,Clear,0,2013-04-27 03:38:00
10:58 PM,47.8,36.5,65,30.16,10.0,Calm,Calm,-,N/A,,Clear,0,2013-04-27 03:58:00
11:17 PM,47.8,35.8,63,30.16,10.0,Calm,Calm,-,N/A,,Clear,0,2013-04-27 04:17:00
11:37 PM,48.0,35.6,62,30.16,10.0,Calm,Calm,-,N/A,,Clear,0,2013-04-27 04:37:00
11:58 PM,45.0,35.2,69,30.15,10.0,Calm,Calm,-,N/A,,Clear,0,2013-04-27 04:58:00